Weather History for Sulphur Springs, TX

Change the Weather History Date:

Tuesday, September 3, 2013

  Actual Average (KGVT) Record (KGVT)
Temperature  
Mean Temperature 86 °F -  
Max Temperature 98 °F 87 °F 104 °F (1998)
Min Temperature 75 °F 70 °F 60 °F (2004)
Cooling Degree Days 22    
Growing Degree Days 36 (Base 50)    
Moisture  
Dew Point 66 °F    
Average Humidity 53    
Maximum Humidity 79    
Minimum Humidity 28    
Precipitation  
Precipitation 0.00 in - - ()
Sea Level Pressure  
Sea Level Pressure 29.96 in    
Wind  
Wind Speed 4 mph (North)    
Max Wind Speed 9 mph    
Max Gust Speed -    
Visibility 10 miles    
Events Rain    
Averages and records for this station are not official NWS values.
T = Trace of Precipitation, MM = Missing Value Source: NWS Daily Summary

Daily Weather History Graph

Daily Weather History Graph

Search for Another Location

Airport:

Trip Planner

Search our weather history database for the weather conditions in past years. The results will help you decide how hot, cold, wet, or windy it might be!

Date:

Astronomy

Sep. 03, 2013 Rise Set
Actual Time 6:58 AM CDT 7:44 PM CDT
Civil Twilight 6:33 AM CDT 8:09 PM CDT
Nautical Twilight 6:03 AM CDT 8:39 PM CDT
Astronomical Twilight 5:32 AM CDT 9:09 PM CDT
Moon 5:15 AM CDT (9/3) 6:31 PM CDT (9/3)
Length of Visible Light 13h 36m
Length of Day
12h 46m
Waning Crescent, 3% of the Moon is Illuminated
Sep 3
Waning Crescent
Sep 5
New
Sep 12
First Quarter
Sep 19
Full
Sep 26
Last Quarter

Hourly Weather History & Observations

Time (CDT) Temp. Heat Index Dew Point Humidity Pressure Visibility Wind Dir Wind Speed Gust Speed Precip Events Conditions
12:15 AM 82.9 °F 88.0 °F 71.8 °F 69% 29.95 in 10.0 mi West 3.5 mph - N/A   Scattered Clouds
12:35 AM 82.4 °F 87.4 °F 72.0 °F 71% 29.95 in 10.0 mi Calm Calm - N/A   Mostly Cloudy
12:55 AM 80.8 °F 84.7 °F 71.6 °F 73% 29.96 in 10.0 mi Calm Calm - N/A   Scattered Clouds
1:15 AM 80.6 °F 84.6 °F 71.6 °F 74% 29.95 in 10.0 mi Calm Calm - N/A   Clear
1:35 AM 80.2 °F 84.2 °F 72.1 °F 76% 29.95 in 10.0 mi NW 3.5 mph - N/A   Clear
1:55 AM 80.6 °F 84.9 °F 72.5 °F 76% 29.95 in 10.0 mi NNW 4.6 mph - N/A   Clear
2:15 AM 80.4 °F 85.0 °F 73.4 °F 79% 29.95 in 10.0 mi NNW 3.5 mph - N/A   Clear
2:35 AM 79.7 °F - 71.6 °F 76% 29.95 in 10.0 mi NNW 4.6 mph - N/A   Clear
2:55 AM 79.7 °F - 70.2 °F 73% 29.95 in 10.0 mi NNW 3.5 mph - N/A   Scattered Clouds
3:15 AM 79.5 °F - 69.8 °F 72% 29.96 in 10.0 mi NNW 3.5 mph - N/A   Scattered Clouds
3:35 AM 78.8 °F - 69.6 °F 73% 29.95 in 10.0 mi North 4.6 mph - N/A   Scattered Clouds
3:55 AM 78.8 °F - 68.9 °F 72% 29.96 in 10.0 mi North 4.6 mph - N/A   Scattered Clouds
4:15 AM 78.4 °F - 68.5 °F 72% 29.96 in 10.0 mi NNW 4.6 mph - N/A   Scattered Clouds
4:35 AM 78.1 °F - 67.8 °F 71% 29.96 in 10.0 mi NW 4.6 mph - N/A   Scattered Clouds
4:55 AM 77.7 °F - 66.6 °F 68% 29.96 in 10.0 mi NNW 3.5 mph - N/A   Scattered Clouds
5:15 AM 77.4 °F - 65.8 °F 67% 29.96 in 10.0 mi NW 3.5 mph - N/A   Scattered Clouds
5:35 AM 77.2 °F - 65.3 °F 67% 29.97 in 10.0 mi North 3.5 mph - N/A   Mostly Cloudy
5:55 AM 77.4 °F - 64.2 °F 64% 29.97 in 10.0 mi North 4.6 mph - N/A   Mostly Cloudy
6:15 AM 77.0 °F - 64.4 °F 65% 29.98 in 10.0 mi NNE 3.5 mph - N/A   Mostly Cloudy
6:35 AM 77.0 °F - 64.0 °F 64% 29.99 in 10.0 mi NNE 3.5 mph - N/A   Overcast
6:55 AM 76.1 °F - 64.4 °F 67% 29.98 in 10.0 mi NNE 3.5 mph - N/A Rain Light Rain
7:15 AM 75.6 °F - 64.6 °F 69% 29.99 in 10.0 mi North 4.6 mph - N/A   Scattered Clouds
7:35 AM 76.1 °F - 64.2 °F 67% 29.99 in 10.0 mi North 3.5 mph - N/A   Scattered Clouds
7:55 AM 76.1 °F - 64.2 °F 67% 29.99 in 10.0 mi North 5.8 mph - N/A   Clear
8:15 AM 76.3 °F - 64.6 °F 67% 30.00 in 10.0 mi North 4.6 mph - N/A   Clear
8:35 AM 77.9 °F - 64.6 °F 63% 29.99 in 10.0 mi North 4.6 mph - N/A   Clear
8:55 AM 79.0 °F - 64.4 °F 61% 30.00 in 10.0 mi North 6.9 mph - N/A   Clear
9:15 AM 80.8 °F 82.6 °F 65.3 °F 59% 30.00 in 10.0 mi North 6.9 mph - N/A   Clear
9:35 AM 81.9 °F 83.9 °F 65.8 °F 58% 30.01 in 10.0 mi North 5.8 mph - N/A   Clear
9:55 AM 82.8 °F 84.9 °F 66.2 °F 57% 30.01 in 10.0 mi North 5.8 mph - N/A   Clear
10:15 AM 84.4 °F 86.8 °F 66.7 °F 55% 30.01 in 10.0 mi NNE 4.6 mph - N/A   Clear
10:35 AM 85.6 °F 88.5 °F 67.3 °F 54% 30.01 in 10.0 mi North 3.5 mph - N/A   Clear
10:55 AM 86.9 °F 90.3 °F 67.8 °F 53% 30.01 in 10.0 mi NNE 3.5 mph - N/A   Clear
11:15 AM 88.3 °F 92.4 °F 68.7 °F 52% 30.01 in 10.0 mi NNW 3.5 mph - N/A   Clear
11:35 AM 88.9 °F 93.0 °F 68.9 °F 51% 30.01 in 10.0 mi Calm Calm - N/A   Clear
11:55 AM 90.5 °F 95.1 °F 68.7 °F 49% 30.01 in 10.0 mi Calm Calm - N/A   Clear
12:15 PM 91.4 °F 95.8 °F 68.7 °F 47% 30.00 in 10.0 mi Calm Calm - N/A   Clear
12:35 PM 92.5 °F 96.4 °F 67.6 °F 44% 30.00 in 10.0 mi Calm Calm - N/A   Clear
12:55 PM 94.3 °F 98.2 °F 66.9 °F 41% 29.99 in 10.0 mi Calm Calm - N/A   Clear
1:15 PM 94.5 °F 98.0 °F 66.4 °F 40% 29.99 in 10.0 mi North 5.8 mph - N/A   Clear
1:35 PM 96.1 °F 99.3 °F 65.7 °F 37% 29.98 in 10.0 mi West 4.6 mph - N/A   Clear
1:55 PM 95.7 °F 99.2 °F 66.4 °F 38% 29.98 in 10.0 mi North 4.6 mph - N/A   Clear
2:15 PM 97.0 °F 99.3 °F 64.2 °F 34% 29.97 in 10.0 mi Calm Calm - N/A   Clear
2:35 PM 96.6 °F 99.2 °F 64.8 °F 35% 29.96 in 10.0 mi NW 4.6 mph - N/A   Clear
2:55 PM 97.0 °F 98.8 °F 63.5 °F 33% 29.95 in 10.0 mi WNW 5.8 mph - N/A   Clear
3:15 PM 97.2 °F 98.1 °F 61.9 °F 31% 29.94 in 10.0 mi Calm Calm - N/A   Clear
3:35 PM 97.0 °F 97.8 °F 62.1 °F 31% 29.94 in 10.0 mi NNW 3.5 mph - N/A   Clear
3:55 PM 97.3 °F 98.4 °F 61.7 °F 31% 29.92 in 10.0 mi Calm Calm - N/A   Clear
4:15 PM 98.4 °F 99.2 °F 61.2 °F 29% 29.91 in 10.0 mi North 4.6 mph - N/A   Clear
4:35 PM 97.2 °F 97.6 °F 61.2 °F 30% 29.91 in 10.0 mi North 3.5 mph - N/A   Clear
4:55 PM 97.9 °F 98.3 °F 60.4 °F 29% 29.90 in 10.0 mi North 3.5 mph - N/A   Clear
5:15 PM 97.7 °F 98.5 °F 61.2 °F 30% 29.90 in 10.0 mi North 9.2 mph - N/A   Clear
5:35 PM 97.9 °F 98.3 °F 60.4 °F 29% 29.90 in 10.0 mi North 5.8 mph - N/A   Clear
5:55 PM 97.5 °F 97.3 °F 59.5 °F 28% 29.89 in 10.0 mi Calm Calm - N/A   Clear
6:15 PM 97.2 °F 96.8 °F 59.0 °F 28% 29.89 in 10.0 mi Calm Calm - N/A   Clear
6:35 PM 96.8 °F 96.7 °F 59.4 °F 29% 29.90 in 10.0 mi Calm Calm - N/A   Clear
6:55 PM 95.9 °F 96.1 °F 60.4 °F 31% 29.90 in 10.0 mi NNE 8.1 mph - N/A   Clear
7:15 PM 94.6 °F 94.7 °F 60.6 °F 32% 29.91 in 10.0 mi NE 4.6 mph - N/A   Clear
7:35 PM 93.4 °F 93.2 °F 59.9 °F 33% 29.92 in 10.0 mi NE 3.5 mph - N/A   Clear
7:55 PM 92.5 °F 92.6 °F 60.8 °F 35% 29.92 in 10.0 mi ENE 4.6 mph - N/A   Clear
8:15 PM 89.1 °F 90.3 °F 63.7 °F 43% 29.93 in 10.0 mi East 6.9 mph - N/A   Clear
8:35 PM 89.6 °F 91.5 °F 65.3 °F 44% 29.94 in 10.0 mi East 8.1 mph - N/A   Clear
8:55 PM 87.8 °F 90.4 °F 66.2 °F 49% 29.95 in 10.0 mi East 6.9 mph - N/A   Clear
9:15 PM 86.9 °F 89.6 °F 66.7 °F 51% 29.95 in 10.0 mi East 5.8 mph - N/A   Clear
9:35 PM 86.2 °F 88.8 °F 66.7 °F 52% 29.96 in 10.0 mi East 6.9 mph - N/A   Clear
9:55 PM 85.5 °F 87.9 °F 66.7 °F 53% 29.96 in 10.0 mi East 6.9 mph - N/A   Clear
10:15 PM 84.9 °F 87.6 °F 66.9 °F 55% 29.96 in 7.0 mi East 5.8 mph - N/A   Clear
10:35 PM 83.8 °F 86.5 °F 67.1 °F 57% 29.96 in 10.0 mi East 5.8 mph - N/A   Clear
10:55 PM 83.3 °F 85.9 °F 67.1 °F 58% 29.97 in 10.0 mi East 6.9 mph - N/A   Clear
11:15 PM 83.3 °F 85.9 °F 67.1 °F 58% 29.98 in 10.0 mi East 6.9 mph - N/A   Clear
11:35 PM 82.4 °F 85.0 °F 67.1 °F 60% 29.98 in 10.0 mi East 6.9 mph - N/A   Clear
11:55 PM 81.3 °F 83.8 °F 67.1 °F 62% 29.99 in 10.0 mi East 5.8 mph - N/A   Clear